[[{"header":{"parameterUnit":"m.s-1","parameterCategory":1,"la1":30.2991,"la2":30.254,"lo1":-89.0895,"lo2":-89.0444,"dy":0.0017,"dx":0.0017,"nx":28,"ny":28,"refTime":"2025-01-11T03:00:00:Z","depth":0,"parameterNumber":2,"parameterNumberName":"U-component_of_WINDS"},"data":[0,0,0,0,0,0,0,0,0,0,0,0,0,0,0,0,0,0,0,0,0,0,0,0,0,0,0,0,0,0,0,0,0,0,0,0,0,0,0,0,0,0,0,0,0,0,0,0,0,0,0,0,0,0,0,0,0,0,-7.428,-7.4281,0,-7.4384,-7.4385,-7.4386,-7.4223,-7.4218,-7.4212,-7.4207,-7.4314,-7.4322,-7.433,0,0,0,0,0,0,0,0,0,0,0,0,0,-7.394,-7.3947,-7.4279,-7.4281,-7.4282,-7.4384,-7.4385,-7.4387,-7.4224,-7.4217,-7.421,-7.4204,-7.4312,-7.4321,-7.4331,0,0,0,0,0,0,0,0,0,0,0,0,0,-7.407,-7.3949,-7.4279,-7.4213,-7.4208,-7.4383,-7.4385,-7.4387,-7.4226,-7.4217,-7.4209,-7.4201,-7.4309,-7.432,-7.4332,-7.4577,0,0,-7.437,-7.4375,0,0,0,0,0,0,0,0,-7.4063,-7.4083,-7.4222,-7.4218,-7.4213,-7.4282,-7.4305,-7.4451,-7.4228,-7.4219,-7.4206,-7.4197,-7.4311,-7.4322,-7.436,-7.4582,-7.4587,-7.4371,-7.4378,-7.4383,-7.4387,0,0,0,0,0,0,0,-7.4054,-7.4078,-7.4321,-7.4224,-7.4219,-7.4179,-7.4188,-7.4332,-7.4311,-7.4219,-7.4208,-7.4222,-7.4306,-7.4349,-7.4362,-7.4588,-7.437,-7.4381,-7.4389,-7.4394,-7.5015,-7.5023,0,0,0,0,0,0,-7.4053,-7.4071,-7.4317,-7.4324,-7.4116,-7.4192,-7.4202,-7.4268,-7.4309,-7.4307,-7.4229,-7.4214,-7.4332,-7.4347,-7.4365,-7.4652,-7.4383,-7.4395,-7.4402,-7.5006,-7.5017,-7.5027,0,0,0,0,0,0,-7.4047,-7.4077,-7.4313,-7.4194,-7.4221,-7.4206,-7.4282,-7.4275,-7.4317,-7.4317,-7.4312,-7.4276,-7.4326,-7.4348,-7.4525,-7.4653,-7.44,-7.4411,-7.4995,-7.5009,-7.5022,-7.523,0,0,0,0,0,0,-7.4038,-7.4075,-7.4168,-7.4198,-7.4228,-7.4472,-7.429,-7.4283,-7.4338,-7.4319,-7.4359,-7.4358,-7.4321,-7.4508,-7.4537,-7.4666,-7.4421,-7.4983,-7.5001,-7.5017,-7.5211,-7.5249,-7.5281,0,0,0,0,0,-7.4026,-7.4223,-7.4173,-7.4204,-7.4344,-7.448,-7.4497,-7.4451,-7.4349,-7.4442,-7.4442,-7.4357,-7.4636,-7.4527,-7.4559,-7.4693,-7.4975,-7.4996,-7.5016,-7.5196,-7.5241,-7.528,0,0,0,0,0,0,-7.4209,-7.4225,-7.4171,-7.4383,-7.4432,-7.4452,-7.4567,-7.4501,-7.4579,-7.4558,-7.4497,-7.4508,-7.4698,-7.4714,-7.4593,-7.4931,-7.4788,-7.4816,-7.4914,-7.4957,-7.4992,-7.4982,-7.4431,0,0,0,0,0,-7.4274,-7.4383,-7.4392,-7.4578,-7.4605,-7.4583,-7.4641,-7.46,-7.4648,-7.4667,-7.468,-7.473,-7.4828,-7.4894,-7.4984,-7.5214,-7.5219,-7.5322,-7.5357,-7.5385,-7.5409,-7.553,-7.5575,-7.5095,-7.5094,-7.5094,0,0,-7.4409,-7.4432,-7.4504,-7.4615,-7.4648,-7.4762,-7.4601,-7.4729,-7.4812,-7.4687,-7.4854,-7.4866,-7.4917,-7.5121,-7.5212,-7.514,-7.5544,-7.5412,-7.5434,-7.5443,-7.5556,-7.5601,-7.5642,-7.5109,-7.5106,-7.5104,0,0,-7.4713,-7.4742,-7.4899,-7.4936,-7.4987,-7.4971,-7.5009,-7.5041,-7.5043,-7.5211,-7.5118,-7.5218,-7.5389,-7.5429,-7.5471,-7.5792,-7.5716,-7.5824,-7.6005,-7.6123,-7.6161,-7.6194,-7.6306,-7.6347,-7.5848,-7.5849,-7.5849,0,-7.4874,-7.5041,-7.4989,-7.5123,-7.5174,-7.5066,-7.5225,-7.5263,-7.5342,-7.5379,-7.5298,-7.551,-7.5537,-7.5748,-7.5826,-7.5866,-7.5906,-7.5817,-7.616,-7.6193,-7.6223,-7.6329,-7.6371,-7.5861,-7.586,-7.5858,-7.5857,0,-7.5236,-7.5354,-7.5476,-7.5554,-7.5619,-7.5765,-7.5734,-7.5807,-7.5762,-7.5755,-7.5927,-7.5956,-7.605,-7.6098,-7.6055,-7.6303,-7.6257,-7.617,-7.6023,-7.6282,-7.638,-7.6421,-7.5879,-7.5875,-7.5871,-7.5868,0,0,-7.5655,-7.5703,-7.5748,-7.5782,-7.5831,-7.5921,-7.6063,-7.6155,-7.6217,-7.6276,-7.6392,-7.654,-7.6459,-7.6508,-7.6469,-7.6574,-7.6823,-7.6473,-7.6473,-7.6535,-7.7096,-7.7159,-7.7207,-7.6775,-7.6782,-7.6788,-7.709,0,-7.5956,-7.6198,-7.6156,-7.6392,-7.6499,-7.6399,-7.6522,-7.6566,-7.6564,-7.6655,-7.6652,-7.6757,-7.6644,-7.6672,-7.6771,-7.6772,-7.6935,-7.675,-7.688,-7.6886,-7.6867,-7.7259,-7.7326,-7.761,-7.7129,-7.7136,-7.714,0,-7.6338,-7.641,-7.6657,-7.6688,-7.6732,-7.6843,-7.6923,-7.7012,-7.706,-7.7051,-7.7106,-7.7048,-7.7189,-7.7044,-7.7236,-7.7111,-7.7163,-7.7172,-7.7181,-7.7189,-7.7026,-7.7274,-7.7699,-7.7741,-7.7201,-7.7196,-7.7192,0,-7.6615,-7.6775,-7.6942,-7.6974,-7.7017,-7.7097,-7.7118,-7.7157,-7.7215,-7.7286,-7.7323,-7.741,-7.7457,-7.7526,-7.7493,-7.739,-7.7691,-7.7543,-7.7686,-7.7687,-7.775,-7.7746,-7.8187,-7.779,-7.7789,-7.7788,-7.7787,0,-7.6953,-7.7107,-7.7067,-7.717,-7.7339,-7.729,-7.7459,-7.7469,-7.7505,-7.7608,-7.7528,-7.7626,-7.7579,-7.7674,-7.7649,-7.7811,-7.7834,-7.783,-7.7821,-7.7835,-7.7835,-7.7865,-7.7843,-7.7799,-7.7797,-7.7795,-7.7793,0,-7.729,-7.7269,-7.7445,-7.7471,-7.7481,-7.7605,-7.7627,-7.7723,-7.7715,-7.7846,-7.7874,-7.7863,-7.797,-7.7945,-7.8063,-7.8047,-7.825,-7.8218,-7.8233,-7.8224,-7.8367,-7.8353,-7.884,-7.89,-7.8467,-7.8471,-7.8475,0,-7.7505,-7.7621,-7.7659,-7.7722,-7.775,-7.7853,-7.7911,-7.7868,-7.7932,-7.7995,-7.8084,-7.8184,-7.8262,-7.8439,-7.8441,-7.8531,-7.8498,-7.8663,-7.8511,-7.8521,-7.8497,-7.8489,-7.85,-7.8692,-7.8697,-7.8701,-7.8704,0,-7.7888,-7.7872,-7.7959,-7.8044,-7.8116,-7.818,-7.8237,-7.8294,-7.8255,-7.8331,-7.844,-7.85,-7.8621,-7.8721,-7.8804,-7.8826,-7.8759,-7.8753,-7.8789,-7.8803,-7.8806,-7.8804,-7.8312,-7.874,-7.8737,-7.8734,-7.8732,-7.8731,-7.8168,-7.8266,-7.8308,-7.8408,-7.8446,-7.8502,-7.8593,-7.8597,-7.8687,-7.8781,-7.8751,-7.8875,-7.8919,-7.9024,-7.9056,-7.9152,-7.909,-7.9145,-7.9158,-7.9171,-7.9188,-7.8795,-7.9168,-7.9167,-7.9166,-7.9165,-7.9164,0,-7.8544,-7.8566,-7.8659,-7.8741,-7.882,-7.8751,-7.8811,-7.8881,-7.8991,-7.9039,-7.9117,-7.9242,-7.9339,-7.935,-7.9441,-7.9516,-7.9488,-7.9542,-7.9534,-7.954,-7.9239,-7.9196,-7.9563,-7.9563,-7.9563,-7.9563,-7.9563,-7.9563,-7.8748,-7.891,-7.89,-7.908,-7.9101,-7.9221,-7.9261,-7.9312,-7.9349,-7.9492,-7.9573,-7.9579,-7.9612,-7.9705,-7.9792,-7.9792,-7.9828,-7.9894,-7.9882,-7.9601,-7.9561,-7.9523,-7.9482,-7.9903,-7.9903,-8.0174,-8.0176,-8.0178]},{"header":{"parameterUnit":"m.s-1","parameterCategory":1,"la1":30.2991,"la2":30.254,"lo1":-89.0895,"lo2":-89.0444,"dy":0.0017,"dx":0.0017,"nx":28,"ny":28,"refTime":"2025-01-11T03:00:00:Z","depth":0,"parameterNumber":3,"parameterNumberName":"V-component_of_WINDS"},"data":[0,0,0,0,0,0,0,0,0,0,0,0,0,0,0,0,0,0,0,0,0,0,0,0,0,0,0,0,0,0,0,0,0,0,0,0,0,0,0,0,0,0,0,0,0,0,0,0,0,0,0,0,0,0,0,0,0,0,-0.2275,-0.2274,0,-0.217,-0.2169,-0.2168,-0.2158,-0.2159,-0.2161,-0.2162,-0.2051,-0.2047,-0.2043,0,0,0,0,0,0,0,0,0,0,0,0,0,-0.2461,-0.2457,-0.2275,-0.2274,-0.2272,-0.2171,-0.2169,-0.2168,-0.2158,-0.216,-0.2161,-0.2162,-0.2052,-0.2047,-0.2043,0,0,0,0,0,0,0,0,0,0,0,0,0,-0.237,-0.2456,-0.2275,-0.2255,-0.2253,-0.2171,-0.2169,-0.2167,-0.2158,-0.216,-0.2161,-0.2163,-0.2054,-0.2048,-0.2042,-0.1972,0,0,-0.2024,-0.2021,0,0,0,0,0,0,0,0,-0.2375,-0.2364,-0.226,-0.2257,-0.2253,-0.2179,-0.2194,-0.2102,-0.2157,-0.2194,-0.2162,-0.2164,-0.2092,-0.2083,-0.2059,-0.1966,-0.1962,-0.2023,-0.202,-0.2017,-0.2015,0,0,0,0,0,0,0,-0.2382,-0.2368,-0.2234,-0.2258,-0.2254,-0.225,-0.2239,-0.2176,-0.2135,-0.2191,-0.219,-0.2178,-0.209,-0.2065,-0.2057,-0.196,-0.2023,-0.2018,-0.2014,-0.2012,-0.1799,-0.1797,0,0,0,0,0,0,-0.2392,-0.2373,-0.2237,-0.223,-0.232,-0.2245,-0.2233,-0.2201,-0.2135,-0.2127,-0.2176,-0.2178,-0.2075,-0.2064,-0.2053,-0.1963,-0.2017,-0.2011,-0.2008,-0.1801,-0.1799,-0.1797,0,0,0,0,0,0,-0.2396,-0.238,-0.2241,-0.2301,-0.2283,-0.224,-0.2205,-0.2198,-0.2173,-0.2125,-0.2117,-0.2159,-0.2076,-0.2061,-0.1991,-0.1959,-0.2009,-0.2003,-0.1804,-0.1801,-0.1798,-0.1785,0,0,0,0,0,0,-0.2402,-0.2382,-0.2356,-0.2301,-0.228,-0.2183,-0.2203,-0.2195,-0.2163,-0.2164,-0.2106,-0.2098,-0.2076,-0.2,-0.1985,-0.1952,-0.1999,-0.1807,-0.1802,-0.1799,-0.1788,-0.1782,-0.1777,0,0,0,0,0,-0.2409,-0.2357,-0.2355,-0.2339,-0.2248,-0.2181,-0.2169,-0.2146,-0.2161,-0.2133,-0.2102,-0.21,-0.1966,-0.1993,-0.1976,-0.1941,-0.1808,-0.1804,-0.1799,-0.1791,-0.1783,-0.1777,0,0,0,0,0,0,-0.2409,-0.2349,-0.2347,-0.2276,-0.2234,-0.218,-0.2145,-0.2139,-0.2091,-0.2093,-0.2066,-0.2052,-0.1983,-0.1955,-0.1987,-0.1867,-0.1888,-0.188,-0.1887,-0.188,-0.1874,-0.1881,-0.1994,0,0,0,0,0,-0.2401,-0.2354,-0.2304,-0.2246,-0.2225,-0.2188,-0.2159,-0.2144,-0.2099,-0.2081,-0.2044,-0.1998,-0.1946,-0.1912,-0.1861,-0.1784,-0.1769,-0.1751,-0.1746,-0.1741,-0.1734,-0.1687,-0.1677,-0.1782,-0.1782,-0.1782,0,0,-0.2384,-0.2345,-0.2317,-0.2245,-0.2211,-0.2159,-0.2173,-0.212,-0.2081,-0.2072,-0.2003,-0.1974,-0.1922,-0.1847,-0.1812,-0.1822,-0.1702,-0.1735,-0.1732,-0.1727,-0.1681,-0.1672,-0.1663,-0.1778,-0.1779,-0.1779,0,0,-0.2326,-0.2293,-0.224,-0.2205,-0.2153,-0.2128,-0.2115,-0.2061,-0.2042,-0.1973,-0.1964,-0.1916,-0.1827,-0.1789,-0.1758,-0.1682,-0.1677,-0.1666,-0.1636,-0.1591,-0.1583,-0.1575,-0.1545,-0.1535,-0.166,-0.1659,-0.1659,0,-0.231,-0.2235,-0.2213,-0.2159,-0.2126,-0.2116,-0.206,-0.2027,-0.196,-0.1936,-0.1948,-0.1833,-0.1798,-0.1712,-0.1693,-0.167,-0.1652,-0.1672,-0.1586,-0.1578,-0.1571,-0.1541,-0.1531,-0.1658,-0.1658,-0.1659,-0.1659,0,-0.2217,-0.2165,-0.2128,-0.2063,-0.2026,-0.1972,-0.1939,-0.1904,-0.1892,-0.1866,-0.1793,-0.1749,-0.1688,-0.1667,-0.1655,-0.1579,-0.1585,-0.1592,-0.1612,-0.156,-0.1532,-0.1521,-0.1657,-0.1657,-0.1657,-0.1658,0,0,-0.2157,-0.208,-0.2066,-0.2035,-0.1976,-0.1934,-0.1877,-0.1818,-0.1786,-0.174,-0.169,-0.1613,-0.1618,-0.1583,-0.1566,-0.1527,-0.1466,-0.1538,-0.1536,-0.1523,-0.1374,-0.1368,-0.1356,-0.1463,-0.1461,-0.1459,-0.1378,0,-0.209,-0.199,-0.1967,-0.1881,-0.183,-0.1818,-0.1768,-0.1725,-0.1698,-0.165,-0.162,-0.1565,-0.1577,-0.1555,-0.1516,-0.1482,-0.1435,-0.1488,-0.1412,-0.141,-0.1424,-0.1341,-0.1335,-0.1261,-0.1367,-0.1365,-0.1364,0,-0.1999,-0.195,-0.1858,-0.1802,-0.178,-0.1736,-0.1677,-0.1632,-0.1581,-0.1564,-0.1524,-0.1511,-0.1448,-0.1473,-0.1385,-0.1421,-0.1389,-0.1367,-0.1364,-0.1354,-0.1382,-0.1326,-0.1237,-0.1224,-0.1347,-0.1348,-0.1349,0,-0.1959,-0.1871,-0.1804,-0.1779,-0.1713,-0.1681,-0.1652,-0.1603,-0.1567,-0.1516,-0.1492,-0.1434,-0.1401,-0.1356,-0.1326,-0.1348,-0.1239,-0.1262,-0.122,-0.1221,-0.1196,-0.1198,-0.1097,-0.118,-0.118,-0.118,-0.1181,0,-0.1886,-0.1829,-0.1785,-0.1744,-0.1679,-0.1652,-0.1588,-0.1559,-0.1515,-0.1465,-0.1452,-0.1405,-0.137,-0.1318,-0.1295,-0.1223,-0.1209,-0.1191,-0.1185,-0.1191,-0.1193,-0.1168,-0.1171,-0.1177,-0.1178,-0.1179,-0.1179,0,-0.1831,-0.18,-0.1725,-0.1668,-0.1652,-0.1607,-0.1557,-0.1515,-0.1487,-0.1424,-0.1408,-0.1364,-0.1302,-0.1268,-0.119,-0.1174,-0.1092,-0.1091,-0.1109,-0.1106,-0.1065,-0.1068,-0.0943,-0.0923,-0.1022,-0.1021,-0.1021,0,-0.1784,-0.174,-0.1679,-0.1645,-0.1615,-0.1561,-0.1524,-0.1496,-0.1458,-0.1395,-0.1359,-0.1296,-0.1244,-0.1144,-0.1104,-0.1043,-0.1038,-0.0998,-0.1028,-0.1034,-0.1033,-0.1035,-0.1028,-0.0992,-0.0991,-0.099,-0.099,0,-0.1704,-0.169,-0.1639,-0.1581,-0.1538,-0.1491,-0.1444,-0.1417,-0.138,-0.1337,-0.1273,-0.1233,-0.1152,-0.1088,-0.1024,-0.0991,-0.0982,-0.098,-0.0967,-0.0971,-0.0982,-0.0972,-0.1092,-0.0983,-0.0984,-0.0984,-0.0984,-0.0985,-0.165,-0.1609,-0.1558,-0.15,-0.1462,-0.1418,-0.1374,-0.1341,-0.1288,-0.122,-0.1207,-0.1138,-0.1085,-0.0997,-0.0963,-0.0907,-0.0915,-0.0896,-0.0891,-0.0886,-0.0882,-0.0993,-0.0896,-0.0896,-0.0896,-0.0896,-0.0896,0,-0.1566,-0.1533,-0.148,-0.1414,-0.1368,-0.1366,-0.1313,-0.1274,-0.1214,-0.1166,-0.1114,-0.1039,-0.0976,-0.0931,-0.0866,-0.083,-0.0824,-0.0814,-0.0814,-0.0806,-0.0881,-0.0898,-0.0819,-0.0819,-0.0819,-0.0819,-0.0819,-0.0819,-0.1517,-0.1446,-0.1426,-0.1335,-0.1302,-0.1235,-0.1205,-0.1163,-0.1124,-0.1041,-0.0989,-0.096,-0.0911,-0.0843,-0.0784,-0.0772,-0.0747,-0.0736,-0.0724,-0.0794,-0.0802,-0.0809,-0.0825,-0.0732,-0.0732,-0.0653,-0.0652,-0.0652]}]]